This is the latest recevied weather packets stored in our database for station/object KO4DYK. If no packets are shown the sender has not sent any weather packets the latest 10 day(s).
| Time | Temp. | Humidity | Pressure | Rain* | Wind** | Luminosity | Snow |
|---|---|---|---|---|---|---|---|
| 1788552362 | 38.89° C | 44% | 1015.5 hPa | 0 mm | - | 548 W/m² | - |
| 1788552057 | 38.33° C | 45% | 1015.6 hPa | 0 mm | - | 557 W/m² | - |
| 1788551756 | 37.78° C | 48% | 1015.6 hPa | 0 mm | - | 557 W/m² | - |
| 1788551455 | 38.33° C | 46% | 1015.6 hPa | 0 mm | - | 349 W/m² | - |
| 1788551150 | 40° C | 42% | 1015.8 hPa | 0 mm | - | 635 W/m² | - |
| 1788550845 | 40° C | 42% | 1015.9 hPa | 0 mm | - | 600 W/m² | - |
| 1788550545 | 39.44° C | 43% | 1015.9 hPa | 0 mm | - | 633 W/m² | - |
| 1788550242 | 40.56° C | 43% | 1016.1 hPa | 0 mm | - | 624 W/m² | - |
| 1788549941 | 38.89° C | 45% | 1016.1 hPa | 0 mm | - | 626 W/m² | - |
| 1788549637 | 37.22° C | 49% | 1016.3 hPa | 0 mm | - | 610 W/m² | - |
| 1788549334 | 37.22° C | 49% | 1016.3 hPa | 0 mm | - | 644 W/m² | - |
| 1788549030 | 36.67° C | 50% | 1016.3 hPa | 0 mm | - | 668 W/m² | - |
| 1788548725 | 36.67° C | 52% | 1016.3 hPa | 0 mm | - | 151 W/m² | - |
| 1788548421 | 38.89° C | 48% | 1016.3 hPa | 0 mm | - | 525 W/m² | - |
| 1788548118 | 40° C | 43% | 1016.4 hPa | 0 mm | - | 161 W/m² | - |
| 1788547813 | 40° C | 44% | 1016.5 hPa | 0 mm | - | 605 W/m² | - |
| 1788547513 | 37.78° C | 48% | 1016.4 hPa | 0 mm | - | 599 W/m² | - |
| 1788547208 | 37.78° C | 48% | 1016.5 hPa | 0 mm | - | 660 W/m² | - |
| 1788546903 | 39.44° C | 45% | 1016.6 hPa | 0 mm | - | 631 W/m² | - |
| 1788546598 | 37.78° C | 47% | 1016.7 hPa | 0 mm | - | 619 W/m² | - |
| 1788546293 | 37.22° C | 49% | 1016.9 hPa | 0 mm | - | 628 W/m² | - |
| 1788545993 | 38.33° C | 48% | 1016.9 hPa | 0 mm | - | 678 W/m² | - |
| 1788545689 | 37.22° C | 50% | 1016.9 hPa | 0 mm | - | 662 W/m² | - |
| 1788545383 | 38.89° C | 49% | 1017.2 hPa | 0 mm | - | 662 W/m² | - |
| 1788545078 | 38.89° C | 48% | 1017.4 hPa | 0 mm | - | 691 W/m² | - |
* Rain latest hour (hover to see other rain measurements)
** Current wind speed in m/s (hover to see current wind gust speed)